Regional Weather Roundup
Issued by NWS Jackson, KY

Home | Current Version | Previous Version | Graphics & Text | Print | Product List | Glossary On
Versions: 1 2 3 4 5 6 7 8 9 10 11 12 13 14 15 16 17 18 19 20 21 22 23 24 25 26 27 28 29 30 31 32 33 34 35 36 37 38 39 40 41 42 43 44 45 46 47 48 49 50
000
ASUS43 KJKL 250110
RWRJKL

EAST KENTUCKY HOURLY WEATHER ROUNDUP
NATIONAL WEATHER SERVICE JACKSON KY
900 PM EDT SUN JUL 24 2016

NOTE: "FAIR" INDICATES FEW OR NO CLOUDS BELOW 12,000 FEET WITH
NO SIGNIFICANT WEATHER AND/OR OBSTRUCTIONS TO VISIBILITY.

* THESE REPORTS ARE NOT UNDER NWS QUALITY CONTROL AND MAY NOT
  REPORT WEATHER SUCH AS PRECIPITATION AND FOG.

KYZ079-080-083-085-087-088-110-112-115-119-120-250200
...EASTERN KENTUCKY...

CITY           SKY/WX    TMP DP  RH WIND       PRES   REMARKS
JACKSON        CLOUDY    85  73  67 CALM      30.04S HX  91
LONDON         CLOUDY    86  71  60 CALM      30.04R HX  91
SOMERSET*      CLEAR     82  72  69 CALM      30.04R
MONTICELLO*    CLOUDY   N/A N/A N/A NE7       30.05R
WILLIAMSBURG*  CLOUDY    82  77  83 CALM      30.05R HX  91
MIDDLESBORO*   PTCLDY    82  75  78 W3        30.05R
HARLAN APT*      N/A     81  72  74 CALM      30.06R
PIKE CO APT*     N/A     82  75  78 CALM      30.04F
BIG SANDY APT* CLEAR     83  77  82 CALM      30.02F HX  92
MOREHEAD APT*  CLEAR     82  77  83 CALM      30.03S HX  91
ASHLAND*       CLEAR     84  77  79 CALM      29.96R HX  94
$$

KYZ035-036-041-042-044-050-067-078-099-250200
...CENTRAL KENTUCKY...

CITY           SKY/WX    TMP DP  RH WIND       PRES   REMARKS
MT STERLING*   CLOUDY    81  73  78 CALM      30.02F
FLEMING/MASON* MOCLDY    83  72  70 SW5       30.00F
DANVILLE*      CLEAR     84  73  70 CALM      30.03S HX  91
RICHMOND*      CLEAR     86  73  66 SW3       30.02R HX  93
LEXINGTON      CLEAR     86  73  65 S5        30.01R HX  93
FRANKFORT      CLEAR     86  75  69 NW3       29.98S HX  95
LOUISVILLE     MOCLDY    90  73  57 SW6       29.96S HX  98
LEBANON*         N/A     86  75  70 S3        30.01R HX  95
GLASGOW*       CLOUDY    83  79  88 CALM      30.00S HX  94
BOWLING GREEN  CLEAR     88  77  69 E3        29.99R HX 100
$$

KYZ091>093-OHZ055-061-077-WVZ005-015-034-035-042-250200
...SOUTHERN OHIO/WEST VIRGINIA...

CITY           SKY/WX    TMP DP  RH WIND       PRES   REMARKS
COVINGTON      PTCLDY    86  76  71 S5        29.98  HX  96
COLUMBUS       CLOUDY    83  72  69 S5        29.97R
DAYTON         MOCLDY    84  72  67 SW6       29.97F
WILMINGTON     CLEAR     83  78  85 CALM      29.97F HX  93
HUNTINGTON       N/A     85  74  69 SW3       29.99S HX  92
CHARLESTON       N/A     84  75  74 S5        30.00S HX  92
PINEVILLE*       N/A     78  72  82 MISG      30.12R
BECKLEY          N/A     79  68  69 CALM      30.12S
BLUEFIELD        N/A     77  69  76 CALM      30.15R
LOGAN CO APT*    N/A     86  73  66 CALM      30.04F HX  93
$$

VAZ002-007-008-TNZ017-027-036-066-071-250200
...SOUTHWEST VIRGINIA/EAST TENNESSEE...

CITY           SKY/WX    TMP DP  RH WIND       PRES   REMARKS
WISE*            N/A     79  61  53 N3        30.15S
JONESVILLE*      N/A     84  75  74 CALM      30.07R HX  92
ABINGDON*      RAIN      82  71  70 S9        30.10R
BRISTOL        CLOUDY    81  68  64 N7        30.06R
MORRISTOWN*    CLEAR     86  72  62 SW5       30.04R HX  92
SEVIERVILLE*   CLEAR     82  70  65 SE3       30.03R
KNOXVILLE      CLOUDY    88  69  53 SW6       30.01R HX  92
OAK RIDGE      CLEAR     87  72  60 W3        30.04R HX  93
CROSSVILLE     CLEAR     77  75  93 CALM      30.10R
NASHVILLE      CLOUDY    89  73  59 E6        30.00R HX  97
$$

...KEY TO REMARKS...
VSB - VISIBILITY IN MILES
WCI - WIND CHILL INDEX
HX  - HEAT INDEX

$$



USA.gov is the U.S. government's official web portal to all federal, state and local government web resources and services.